Theta_e
298 296 294 294 292 291 290 291 291 290 290 288 287 287 286 286 285 283 282 281 282 281
295 294 292 291 291 291 290 290 290 288 287 286 286 285 284 283 283 283 282 281 281 280
291 291 291 291 290 290 289 288 287 286 285 285 284 284 283 283 283 282 281 281 279 279
292 292 292 291 289 287 286 285 285 285 284 284 283 283 282 282 282 280 280 279 279 279
292 291 289 287 286 285 284 285 285 285 284 284 283 282 282 281 280 279 279 279 278 278
288 286 285 284 284 284 283 283 284 284 283 283 282 282 281 280 280 280 280 279 278 277
285 285 284 284 283 283 282 282 282 282 282 282 282 282 281 280 280 279 279 280 279 277
285 284 283 282 282 282 281 281 280 280 281 281 281 282 280 280 278 278 277 278 278 278
283 282 281 281 280 280 280 279 279 279 279 279 281 284 284 281 279 279 278 277 277 277
282 281 280 280 280 279 278 278 278 278 278 278 279 284 284 283 279 278 277 277 278 277
281 280 280 279 278 278 278 277 277 277 277 277 278 283 284 283 279 277 277 277 277 276
280 279 279 278 277 277 276 276 276 277 276 276 276 282 283 282 279 278 277 277 276 276
280 279 278 278 277 277 276 277 276 277 276 276 276 280 282 281 279 276 276 276 276 278
279 278 278 277 276 274 274 275 274 274 274 274 275 276 281 282 278 276 276 275 274 274
Wind_Speed
11 8 6 6 6 5 4 4 5 6 6 6 5 6 5 5 5 5 5 6 5 4
10 10 8 7 5 4 5 6 6 6 5 5 5 6 6 4 5 5 4 5 5 4
7 9 6 6 6 5 5 5 6 6 6 5 5 6 6 5 4 5 3 4 5 4
7 7 7 5 6 5 6 6 5 6 6 6 5 5 5 5 5 6 5 4 5 4
6 6 4 4 5 6 6 5 5 5 6 5 5 5 5 5 5 5 5 4 4 4
7 7 6 5 6 6 7 6 5 5 6 5 5 5 4 5 5 4 4 5 5 4
6 6 6 5 5 5 5 5 5 5 5 5 5 4 4 5 4 4 4 4 5 5
5 5 6 6 6 5 5 5 5 5 5 5 4 3 4 4 5 5 5 5 4 4
6 6 5 5 5 5 5 5 5 5 6 5 3 8 8 6 4 5 5 5 4 4
6 6 6 5 5 5 6 5 5 5 5 6 5 10 9 8 3 4 5 5 5 5
6 6 6 6 6 5 4 5 5 6 6 5 6 12 11 10 4 4 6 5 6 5
6 6 6 6 6 5 4 5 6 5 7 7 6 13 13 10 5 6 6 6 5 5
6 6 7 7 6 4 4 6 5 7 7 7 6 13 15 12 5 6 4 5 5 9
7 8 7 6 4 4 5 5 5 6 4 6 7 8 17 18 7 6 5 5 4 3
Wind_Direction
114 119 122 135 131 130 122 121 110 94 83 82 95 91 91 90 91 87 82 85 77 82
124 124 124 118 113 120 104 107 97 91 103 98 90 89 90 91 92 89 90 87 85 81
102 110 110 101 99 99 100 105 120 119 108 103 95 95 98 96 101 98 95 89 86 77
97 81 88 115 135 137 120 133 127 120 115 107 104 105 99 105 106 101 100 97 105 98
122 126 141 142 121 131 125 117 119 121 109 112 118 125 130 127 128 137 134 139 121 128
147 142 134 146 148 134 128 138 135 126 130 145 149 145 136 144 150 156 159 161 161 160
143 145 153 156 138 129 146 143 137 145 150 157 153 152 156 163 168 176 175 178 168 173
147 141 160 150 147 154 148 150 144 152 157 166 169 169 181 182 187 186 182 192 181 188
157 158 169 162 160 155 155 155 158 182 182 187 192 196 193 188 200 201 191 195 197 194
161 175 187 175 166 177 177 170 194 197 194 204 205 208 209 209 207 210 209 202 196 197
178 190 187 184 193 193 180 193 203 208 204 206 210 217 217 218 210 225 220 211 202 205
187 191 190 201 202 198 191 207 210 207 209 211 210 222 221 221 206 223 219 210 202 209
194 199 204 205 200 191 204 214 208 222 214 211 215 224 227 226 208 222 211 200 205 214
202 207 209 202 186 191 209 216 221 228 224 216 210 225 232 229 215 216 213 200 202 206